Location: McCall
(45.0000°N, 116.0000°W)
Time: 21:31:14
(UTC-06:00)

Amateur Radio Satellites - All Passes

Search period start: 29 July 2016 21:01
Search period end: 30 July 2016 21:01
Location: McCall, 45.0000°N, 116.0000°W

Satellite Date Start Highest point End Downlink Frequencies (MHz)
Time Altitude Azimuth
AO-85 29 Jul 21:02:40 21:05:09 14° 29° (NNE) 21:07:32 145.980
CINEMA 3 29 Jul 21:03:04 21:07:37 63° 260° (W) 21:12:24 145.822/145.860
FUNcube-1 29 Jul 21:14:24 21:18:08 25° 66° (ENE) 21:21:54 145.935
AAUSAT CUBESAT 2 29 Jul 21:14:27 21:18:32 59° 74° (ENE) 21:22:37 437.432
AUBIESAT-1 29 Jul 21:14:39 21:16:03 12° 51° (NE) 21:17:29 437.475
BEESAT 3 29 Jul 21:14:51 21:16:18 12° 328° (NNW) 21:17:45 437.485
DOVE 4 29 Jul 21:15:22 21:17:56 15° 272° (W) 21:20:35 437.250
DELFI C3 29 Jul 21:15:50 21:17:02 11° 61° (ENE) 21:18:15 145.870
ZACube-1 29 Jul 21:16:48 21:20:42 28° 67° (ENE) 21:24:38 437.345
PCSat 29 Jul 21:16:56 21:21:51 34° 313° (NW) 21:26:47 145.827
UWE-3 29 Jul 21:22:15 21:26:40 47° 71° (ENE) 21:31:10 435.000/436.395/437.385
BEESAT 2 29 Jul 21:25:51 21:28:05 14° 325° (NW) 21:30:20 435.950
CANX-2 29 Jul 21:32:11 21:36:00 31° 264° (W) 21:39:51 2200.000
ISS 29 Jul 21:34:35 21:37:42 45° 143° (SE) 21:40:50 145.825
CUTE 1.7 + AOD 2 29 Jul 21:45:17 21:48:53 26° 265° (W) 21:52:31 437.475
HO-68 29 Jul 21:47:37 21:54:13 39° 263° (W) 22:00:54 435.675
CUBEBUG 2 29 Jul 21:50:25 21:55:01 65° 259° (W) 21:59:46 437.445
Oscar 11 29 Jul 21:52:11 21:56:29 63° 73° (ENE) 22:00:48 145.826/435.025
HUMSAT D 29 Jul 22:06:14 22:09:28 21° 65° (ENE) 22:12:43 437.325/437.525
STRAND 1 29 Jul 22:10:23 22:14:53 32° 294° (WNW) 22:19:20 437.568
AIST 2 29 Jul 22:10:57 22:15:01 57° 309° (NW) 22:19:07 435.215
SEEDS 29 Jul 22:20:07 22:22:48 16° 269° (W) 22:25:30 437.485
M-CUBED/EXP-1 PRIME 29 Jul 22:22:24 22:26:14 61° 68° (ENE) 22:30:27 437.505
COMPASS 1 29 Jul 22:25:52 22:28:54 19° 268° (W) 22:31:56 437.405
Cosmos 2491 29 Jul 22:26:56 22:35:34 73° 94° (E) 22:44:15 435.465 / 435.565
O/OREOS (USA 219) 29 Jul 22:34:14 22:37:50 23° 306° (NW) 22:41:27 437.305
AO-85 29 Jul 22:42:05 22:46:34 68° 52° (NE) 22:50:39 145.980
PRISM 29 Jul 22:42:59 22:47:05 78° 284° (WNW) 22:51:11 437.425
AUBIESAT-1 29 Jul 22:45:48 22:49:44 89° 234° (SW) 22:54:01 437.475
DELFI C3 29 Jul 22:47:21 22:51:20 73° 258° (WSW) 22:55:18 145.870
Cosmos 2504 29 Jul 22:48:20 22:56:31 75° 79° (E) 23:04:03 435.465 / 435.565
FUNcube-1 29 Jul 22:49:59 22:54:12 37° 263° (W) 22:58:28 145.935
TIGRISAT 29 Jul 22:52:16 22:54:11 12° 88° (E) 22:56:05 435.000
AAUSAT CUBESAT 2 29 Jul 22:52:29 22:54:24 13° 270° (W) 22:56:19 437.432
ZACube-1 29 Jul 22:52:46 22:56:52 33° 264° (W) 23:01:02 437.345
YUBILEINY 29 Jul 22:58:08 23:06:08 40° 275° (W) 23:14:05 435.215
UWE-3 29 Jul 22:59:57 23:03:22 20° 269° (W) 23:06:50 435.000/436.395/437.385
UNISAT 6 29 Jul 23:08:30 23:11:52 20° 91° (E) 23:15:09 437.425
ISS 29 Jul 23:11:08 23:14:12 37° 342° (NNW) 23:17:16 145.825
50 SAT 29 Jul 23:23:04 23:24:38 12° 63° (ENE) 23:26:11 437.505
CUBEBUG 1 29 Jul 23:28:15 23:31:19 19° 64° (ENE) 23:34:25 437.445
ESTCUBE 1 29 Jul 23:30:25 23:34:19 30° 67° (ENE) 23:38:13 437.505/2401.250
Oscar 11 29 Jul 23:30:55 23:33:02 13° 271° (W) 23:35:08 145.826/435.025
VELOX 1 29 Jul 23:34:54 23:38:08 20° 64° (ENE) 23:41:22 145.980
HUMSAT D 29 Jul 23:40:46 23:44:51 40° 262° (W) 23:48:56 437.325/437.525
ANTELSAT 29 Jul 23:46:06 23:50:33 45° 98° (E) 23:54:53 437.575/2403.000
AIST 2 29 Jul 23:52:52 23:54:23 12° 329° (NNW) 23:55:54 435.215
M-CUBED/EXP-1 PRIME 29 Jul 23:59:33 00:01:17 13° 267° (W) 00:03:05 437.505
QB50P1 30 Jul 00:05:28 00:06:55 11° 89° (E) 00:08:21 145.935-145.965
DX 1 30 Jul 00:08:11 00:12:01 32° 67° (ENE) 00:15:52 434.975-435.025
POPSAT HIP 1 30 Jul 00:11:39 00:13:46 13° 90° (E) 00:15:52 437.405
UKube-1 30 Jul 00:16:03 00:19:49 30° 67° (ENE) 00:23:37 .
AISAT 30 Jul 00:18:47 00:23:05 57° 72° (ENE) 00:27:25 437.250
AIST 1 30 Jul 00:23:32 00:27:12 26° 72° (ENE) 00:30:52
AO-85 30 Jul 00:24:14 00:26:20 13° 252° (WSW) 00:28:21 145.980
Cosmos 2491 30 Jul 00:26:10 00:33:17 27° 296° (WNW) 00:40:28 435.465 / 435.565
TIGRISAT 30 Jul 00:26:48 00:31:26 74° 286° (WNW) 00:35:56 435.000
QB50P2 30 Jul 00:32:18 00:35:47 24° 94° (E) 00:39:15 145.880/145.840
POLYITAN 1 30 Jul 00:34:55 00:38:26 24° 94° (E) 00:41:55 437.675
SPROUT 30 Jul 00:42:56 00:47:01 45° 71° (ENE) 00:51:09 437.525
Cosmos 2504 30 Jul 00:43:02 00:48:55 23° 281° (WNW) 00:54:31 435.465 / 435.565
UNISAT 6 30 Jul 00:44:23 00:48:50 47° 289° (WNW) 00:53:10 437.425
ISS 30 Jul 00:48:28 00:51:12 24° 2° (N) 00:53:58 145.825
50 SAT 30 Jul 00:54:14 00:57:49 53° 259° (W) 01:01:25 437.505
CUBEBUG 1 30 Jul 01:03:10 01:07:18 45° 261° (W) 01:11:29 437.445
ESTCUBE 1 30 Jul 01:07:09 01:11:05 29° 265° (W) 01:15:01 437.505/2401.250
VELOX 1 30 Jul 01:10:07 01:14:18 44° 261° (W) 01:18:32 145.980
GONETS M04 30 Jul 01:10:46 01:15:47 16° 54° (NE) 01:20:46
NANOSAT C BR1 30 Jul 01:14:36 01:18:51 60° 101° (E) 01:23:03 145.865
DUCHIFAT 1 30 Jul 01:17:20 01:21:35 60° 101° (E) 01:25:47 145.980
BUGSAT 1 30 Jul 01:19:16 01:22:59 28° 96° (E) 01:26:40 437.445
JAS-2 30 Jul 01:19:39 01:24:06 25° 95° (E) 01:28:49 435.910
ANTELSAT 30 Jul 01:23:28 01:26:57 21° 296° (WNW) 01:30:21 437.575/2403.000
TISAT 1 30 Jul 01:27:16 01:31:03 34° 69° (ENE) 01:34:53 437.305
QB50P1 30 Jul 01:38:54 01:43:12 71° 285° (WNW) 01:47:26 145.935-145.965
Cosmos 2499 30 Jul 01:40:05 01:44:04 14° 54° (NE) 01:47:53 435.465 / 435.565
BEESAT 30 Jul 01:43:13 01:45:25 13° 58° (ENE) 01:47:38 436.000
DX 1 30 Jul 01:44:34 01:48:13 26° 265° (W) 01:51:52 434.975-435.025
POPSAT HIP 1 30 Jul 01:45:42 01:49:57 61° 287° (WNW) 01:54:10 437.405
UKube-1 30 Jul 01:52:12 01:55:51 27° 264° (W) 01:59:33 .
AISAT 30 Jul 01:57:25 01:59:56 15° 269° (W) 02:02:28 437.250
AIST 1 30 Jul 02:00:59 02:04:47 30° 270° (W) 02:08:35
ITUPSAT 1 30 Jul 02:06:51 02:10:24 21° 62° (ENE) 02:13:58 437.325
QB50P2 30 Jul 02:07:46 02:11:39 34° 291° (WNW) 02:15:30 145.880/145.840
POLYITAN 1 30 Jul 02:10:25 02:14:17 33° 292° (WNW) 02:18:08 437.675
BEESAT 3 30 Jul 02:12:22 02:15:17 19° 40° (NE) 02:18:13 437.485
SPROUT 30 Jul 02:20:17 02:23:13 18° 268° (W) 02:26:10 437.525
ISS 30 Jul 02:25:01 02:28:10 45° 22° (NNE) 02:31:19 145.825
BEESAT 2 30 Jul 02:25:03 02:27:37 16° 37° (NE) 02:30:10 435.950
PCSat 30 Jul 02:36:47 02:39:33 14° 31° (NNE) 02:42:18 145.827
NANOSAT C BR1 30 Jul 02:51:39 02:54:07 15° 298° (WNW) 02:56:34 145.865
DUCHIFAT 1 30 Jul 02:54:21 02:56:48 15° 298° (WNW) 02:59:14 145.980
BUGSAT 1 30 Jul 02:54:38 02:58:18 28° 293° (WNW) 03:01:57 437.445
SWISSCUBE 30 Jul 02:56:46 03:01:31 66° 72° (ENE) 03:06:16 437.505
TISAT 1 30 Jul 03:03:24 03:06:46 23° 266° (W) 03:10:11 437.305
JAS-2 30 Jul 03:04:19 03:09:24 46° 290° (WNW) 03:14:52 435.910
GONETS M04 30 Jul 03:05:43 03:14:32 68° 78° (ENE) 03:23:20
Oscar 19 30 Jul 03:13:09 03:18:21 70° 103° (ESE) 03:23:31 437.125/150
BEESAT 30 Jul 03:17:43 03:22:31 87° 256° (WSW) 03:27:20 436.000
ITAMSAT 1 30 Jul 03:18:01 03:19:39 11° 87° (E) 03:21:16 435.822/435.867
Gurwin Techsat 1B 30 Jul 03:19:45 03:24:42 37° 97° (E) 03:29:36 435.225
Cosmos 2499 30 Jul 03:31:08 03:38:59 70° 79° (ENE) 03:46:13 435.465 / 435.565
MOZHAYETS 4 30 Jul 03:31:43 03:34:57 19° 63° (ENE) 03:38:11
ITUPSAT 1 30 Jul 03:43:13 03:47:53 51° 260° (W) 03:52:35 437.325
AO-7 30 Jul 03:44:19 03:48:06 14° 85° (E) 03:51:53 29.400- 29.500
BEESAT 3 30 Jul 03:49:24 03:53:18 57° 239° (WSW) 03:57:11 437.485
DANDE 30 Jul 03:58:40 04:01:00 14° 93° (E) 04:03:06 436.750
ISS 30 Jul 04:01:35 04:04:32 32° 220° (SW) 04:07:28 145.825
BEESAT 2 30 Jul 04:01:57 04:05:58 79° 237° (WSW) 04:09:57 435.950
KKS-1 30 Jul 04:09:21 04:13:29 39° 69° (ENE) 04:17:39 437.445
PCSat 30 Jul 04:18:52 04:24:13 54° 53° (NE) 04:29:31 145.827
SWISSCUBE 30 Jul 04:37:02 04:39:45 15° 270° (W) 04:42:29 437.505
STARS 30 Jul 04:39:04 04:43:11 40° 69° (ENE) 04:47:21 437.465
CUSAT 1 30 Jul 04:46:11 04:49:51 63° 281° (W) 04:52:48 437.405
AIST 2 30 Jul 04:52:27 04:55:52 24° 42° (NE) 04:59:15 435.215
Oscar 19 30 Jul 04:53:43 04:57:07 18° 301° (WNW) 05:00:32 437.125/150
ITAMSAT 1 30 Jul 04:54:39 04:59:52 87° 106° (ESE) 05:05:03 435.822/435.867
Gurwin Techsat 1B 30 Jul 04:59:53 05:04:33 32° 295° (WNW) 05:09:12 435.225
CUBESAT XI-V 30 Jul 04:59:54 05:03:08 19° 63° (ENE) 05:06:23 437.345
BEESAT 30 Jul 05:00:54 05:01:00 10° 273° (W) 05:01:05 436.000
GONETS M04 30 Jul 05:03:32 05:10:37 29° 279° (W) 05:17:44
MOZHAYETS 4 30 Jul 05:07:13 05:11:44 53° 260° (W) 05:16:17
O/OREOS (USA 219) 30 Jul 05:23:33 05:26:22 16° 49° (NE) 05:29:12 437.305
Cosmos 2499 30 Jul 05:25:29 05:31:12 23° 281° (W) 05:36:40 435.465 / 435.565
AO-7 30 Jul 05:34:02 05:42:24 69° 105° (ESE) 05:50:40 29.400- 29.500
DANDE 30 Jul 05:38:44 05:43:41 53° 282° (WNW) 05:47:24 436.750
KKS-1 30 Jul 05:46:44 05:50:11 22° 266° (W) 05:53:41 437.445
RS-15 30 Jul 05:56:00 06:04:37 26° 100° (E) 06:13:30 29.354- 29.394
PCSat 30 Jul 06:02:55 06:07:15 25° 252° (WSW) 06:11:34 145.827
STARS 30 Jul 06:16:21 06:19:42 21° 267° (W) 06:23:05 437.465
AIST 2 30 Jul 06:30:33 06:34:34 47° 241° (WSW) 06:38:34 435.215
CUBESAT XI-V 30 Jul 06:35:40 06:40:09 51° 260° (W) 06:44:40 437.345
ITAMSAT 1 30 Jul 06:35:50 06:38:37 15° 303° (WNW) 06:41:24 435.822/435.867
Cubesat XI-IV 30 Jul 06:37:50 06:39:03 11° 86° (E) 06:40:16 437.490
LilacSat-2 30 Jul 06:53:20 06:54:36 11° 89° (E) 06:55:51 437.200
HORYU 2 30 Jul 06:58:23 07:02:53 87° 285° (WNW) 07:07:21 437.375
CUTE-I 30 Jul 06:58:26 07:01:59 18° 90° (E) 07:05:31 437.470
O/OREOS (USA 219) 30 Jul 07:01:46 07:06:18 72° 249° (WSW) 07:10:50 437.305
NOAA 15 30 Jul 07:06:49 07:11:17 27° 95° (E) 07:15:44 137.62
BRITE-PL 30 Jul 07:10:56 07:15:35 41° 98° (E) 07:20:34 437.365/2234.400
SO-50 30 Jul 07:24:12 07:27:13 17° 110° (ESE) 07:30:14 436.795
AO-7 30 Jul 07:27:31 07:34:35 32° 306° (NW) 07:41:38 29.400- 29.500
DOVE 4 30 Jul 07:32:50 07:36:09 17° 89° (E) 07:39:28 437.250
STRAND 1 30 Jul 07:48:39 07:53:43 62° 72° (ENE) 07:58:48 437.568
GOMX 1 30 Jul 07:55:39 08:00:41 52° 99° (E) 08:05:57 467.674
NOAA 18 30 Jul 08:02:05 08:07:35 61° 102° (ESE) 08:13:02 137.9125
PRISM 30 Jul 08:02:40 08:03:21 10° 59° (ENE) 08:04:01 437.425
RS-15 30 Jul 08:03:46 08:15:19 88° 123° (ESE) 08:27:33 29.354- 29.394
Cubesat XI-IV 30 Jul 08:14:35 08:19:58 81° 104° (ESE) 08:25:18 437.490
LilacSat-2 30 Jul 08:25:28 08:29:18 58° 285° (WNW) 08:33:04 437.200
Cosmos 2491 30 Jul 08:34:55 08:43:04 41° 70° (ENE) 08:51:12 435.465 / 435.565
CUTE-I 30 Jul 08:37:13 08:42:31 66° 288° (WNW) 08:47:46 437.470
HORYU 2 30 Jul 08:37:28 08:38:43 11° 303° (WNW) 08:39:56 437.375
NOAA 15 30 Jul 08:46:14 08:51:12 42° 292° (WNW) 08:56:08 137.62
BRITE-PL 30 Jul 08:49:49 08:53:55 27° 293° (WNW) 08:58:16 437.365/2234.400
CINEMA 3 30 Jul 08:55:55 09:00:21 30° 94° (E) 09:04:42 145.822/145.860
SO-50 30 Jul 09:02:17 09:07:10 73° 307° (NW) 09:12:01 436.795
DOVE 4 30 Jul 09:09:05 09:14:16 70° 286° (WNW) 09:19:32 437.250
HO-68 30 Jul 09:12:28 09:19:09 39° 97° (E) 09:25:46 435.675
CANX-2 30 Jul 09:14:49 09:18:44 36° 97° (E) 09:22:37 2200.000
CUTE 1.7 + AOD 2 30 Jul 09:27:28 09:31:30 44° 98° (E) 09:35:30 437.475
STRAND 1 30 Jul 09:29:51 09:33:19 18° 269° (W) 09:36:47 437.568
PRISM 30 Jul 09:33:56 09:38:01 84° 259° (W) 09:42:06 437.425
GOMX 1 30 Jul 09:34:28 09:38:27 24° 295° (WNW) 09:42:36 467.674
CUBEBUG 2 30 Jul 09:39:57 09:43:49 25° 93° (E) 09:47:33 437.445
Cosmos 2504 30 Jul 09:41:00 09:44:07 12° 71° (ENE) 09:47:13 435.465 / 435.565
NOAA 18 30 Jul 09:43:36 09:47:47 22° 300° (WNW) 09:51:58 137.9125
TIGRISAT 30 Jul 09:52:27 09:55:13 16° 61° (ENE) 09:58:02 435.000
Cubesat XI-IV 30 Jul 09:56:08 09:59:22 16° 302° (WNW) 10:02:35 437.490
SEEDS 30 Jul 10:00:04 10:04:15 72° 103° (ESE) 10:08:23 437.485
YUBILEINY 30 Jul 10:04:05 10:12:29 53° 89° (E) 10:20:57 435.215
COMPASS 1 30 Jul 10:05:15 10:09:20 57° 100° (E) 10:13:23 437.405
UNISAT 6 30 Jul 10:08:56 10:12:37 23° 64° (ENE) 10:16:19 437.425
RS-15 30 Jul 10:18:37 10:29:28 40° 332° (NNW) 10:40:47 29.354- 29.394
CUTE-I 30 Jul 10:20:21 10:21:33 11° 307° (NW) 10:22:44 437.470
DELFI C3 30 Jul 10:24:44 10:26:24 12° 90° (E) 10:28:03 145.870
AAUSAT CUBESAT 2 30 Jul 10:29:59 10:34:08 86° 107° (ESE) 10:38:14 437.432
Cosmos 2491 30 Jul 10:31:47 10:40:05 50° 271° (W) 10:48:24 435.465 / 435.565
CINEMA 3 30 Jul 10:32:54 10:37:29 36° 292° (WNW) 10:42:00 145.822/145.860
FUNcube-1 30 Jul 10:35:58 10:40:07 37° 96° (E) 10:44:09 145.935
ZACube-1 30 Jul 10:38:50 10:43:07 42° 98° (E) 10:47:16 437.345
SO-50 30 Jul 10:45:23 10:48:29 17° 328° (NNW) 10:51:34 436.795
UWE-3 30 Jul 10:46:12 10:50:51 78° 104° (ESE) 10:55:18 435.000/436.395/437.385
ANTELSAT 30 Jul 10:46:13 10:50:44 51° 72° (ENE) 10:55:19 437.575/2403.000
DOVE 4 30 Jul 10:49:32 10:51:04 11° 303° (WNW) 10:52:36 437.250
CANX-2 30 Jul 10:51:09 10:54:23 22° 294° (WNW) 10:57:36 2200.000
QB50P1 30 Jul 11:00:04 11:01:51 12° 60° (ENE) 11:03:38 145.935-145.965
HO-68 30 Jul 11:00:10 11:06:56 46° 296° (WNW) 11:13:40 435.675
CUTE 1.7 + AOD 2 30 Jul 11:04:06 11:07:02 19° 296° (WNW) 11:09:58 437.475
POPSAT HIP 1 30 Jul 11:06:21 11:08:36 14° 61° (ENE) 11:10:52 437.405
Oscar 11 30 Jul 11:13:22 11:17:42 82° 285° (WNW) 11:21:59 145.826/435.025
CUBEBUG 2 30 Jul 11:16:11 11:20:32 38° 291° (WNW) 11:24:47 437.445
HUMSAT D 30 Jul 11:22:26 11:26:00 27° 95° (E) 11:29:30 437.325/437.525
TIGRISAT 30 Jul 11:26:43 11:31:21 69° 258° (WSW) 11:36:05 435.000
QB50P2 30 Jul 11:26:51 11:30:15 24° 66° (ENE) 11:33:42 145.880/145.840
Cosmos 2504 30 Jul 11:27:00 11:35:41 61° 91° (E) 11:44:15 435.465 / 435.565
POLYITAN 1 30 Jul 11:29:27 11:32:53 24° 66° (ENE) 11:36:21 437.675
M-CUBED/EXP-1 PRIME 30 Jul 11:33:50 11:38:14 38° 102° (ESE) 11:42:35 437.505
JAS-2 30 Jul 11:36:47 11:39:39 14° 58° (ENE) 11:42:25 435.910
SEEDS 30 Jul 11:37:42 11:39:23 12° 299° (WNW) 11:41:02 437.485
COMPASS 1 30 Jul 11:42:09 11:44:27 15° 298° (WNW) 11:46:44 437.405
UNISAT 6 30 Jul 11:44:37 11:49:03 43° 262° (W) 11:53:34 437.425
AUBIESAT-1 30 Jul 11:56:41 12:01:15 52° 105° (ESE) 12:05:44 437.475
DELFI C3 30 Jul 11:57:45 12:01:37 56° 287° (WNW) 12:05:28 145.870
YUBILEINY 30 Jul 12:01:30 12:09:33 39° 291° (WNW) 12:17:42 435.215
NANOSAT C BR1 30 Jul 12:08:16 12:12:25 56° 73° (ENE) 12:16:36 145.865
AAUSAT CUBESAT 2 30 Jul 12:08:29 12:08:57 10° 301° (WNW) 12:09:25 437.432
DUCHIFAT 1 30 Jul 12:10:44 12:14:53 56° 73° (ENE) 12:19:04 145.980
BUGSAT 1 30 Jul 12:10:58 12:14:23 26° 66° (ENE) 12:17:51 437.445
FUNcube-1 30 Jul 12:12:36 12:16:09 24° 295° (WNW) 12:19:39 145.935
ZACube-1 30 Jul 12:15:44 12:19:07 21° 296° (WNW) 12:22:27 437.345
50 SAT 30 Jul 12:23:40 12:23:56 10° 90° (E) 12:24:11 437.505
UWE-3 30 Jul 12:24:25 12:26:38 13° 301° (WNW) 12:28:49 435.000/436.395/437.385
ANTELSAT 30 Jul 12:24:26 12:27:44 19° 269° (W) 12:31:05 437.575/2403.000
QB50P1 30 Jul 12:32:47 12:37:02 76° 257° (WSW) 12:41:19 145.935-145.965
RS-15 30 Jul 12:36:13 12:46:28 30° 6° (N) 12:56:54 29.354- 29.394
POPSAT HIP 1 30 Jul 12:39:38 12:43:52 65° 259° (W) 12:48:09 437.405
CUBEBUG 1 30 Jul 12:49:46 12:53:34 28° 95° (E) 12:57:21 437.445
HO-68 30 Jul 12:51:39 12:52:52 10° 318° (NW) 12:54:07 435.675
Oscar 19 30 Jul 12:54:57 12:58:20 18° 59° (ENE) 13:01:44 437.125/150
AIST 1 30 Jul 12:56:39 12:58:44 13° 84° (E) 13:00:48
ESTCUBE 1 30 Jul 12:56:52 13:01:14 48° 99° (E) 13:05:35 437.505/2401.250
HUMSAT D 30 Jul 12:58:00 13:01:35 28° 292° (WNW) 13:05:08 437.325/437.525
VELOX 1 30 Jul 12:58:12 13:02:05 29° 96° (E) 13:05:58 145.980
AO-85 30 Jul 12:58:58 13:02:21 17° 110° (ESE) 13:05:41 145.980
QB50P2 30 Jul 13:01:59 13:05:53 35° 263° (W) 13:09:51 145.880/145.840
POLYITAN 1 30 Jul 13:04:38 13:08:32 34° 263° (W) 13:12:29 437.675
Gurwin Techsat 1B 30 Jul 13:07:09 13:08:55 12° 54° (NE) 13:10:41 435.225
M-CUBED/EXP-1 PRIME 30 Jul 13:08:32 13:12:35 29° 299° (WNW) 13:16:36 437.505
JAS-2 30 Jul 13:18:17 13:24:08 89° 251° (WSW) 13:29:29 435.910
Cosmos 2504 30 Jul 13:21:39 13:29:32 35° 292° (WNW) 13:37:21 435.465 / 435.565
DX 1 30 Jul 13:29:51 13:34:04 44° 99° (E) 13:38:15 434.975-435.025
AUBIESAT-1 30 Jul 13:31:49 13:35:20 22° 302° (WNW) 13:38:49 437.475
UKube-1 30 Jul 13:36:31 13:40:38 41° 99° (E) 13:44:44 .
AISAT 30 Jul 13:43:05 13:47:35 89° 104° (ESE) 13:52:03 437.250
BUGSAT 1 30 Jul 13:46:02 13:49:39 30° 264° (W) 13:53:21 437.445
NANOSAT C BR1 30 Jul 13:46:10 13:48:31 14° 270° (W) 13:50:52 145.865
DUCHIFAT 1 30 Jul 13:48:35 13:50:55 14° 270° (W) 13:53:18 145.980
50 SAT 30 Jul 13:54:22 13:57:56 56° 286° (WNW) 14:01:26 437.505
SPROUT 30 Jul 14:02:27 14:06:47 68° 102° (ESE) 14:11:05 437.525
GONETS M04 30 Jul 14:18:00 14:22:15 15° 73° (ENE) 14:26:30
Cosmos 2499 30 Jul 14:23:39 14:25:24 11° 71° (ENE) 14:27:07 435.465 / 435.565
CUBEBUG 1 30 Jul 14:25:57 14:29:50 31° 292° (WNW) 14:33:43 437.445
AIST 1 30 Jul 14:31:38 14:35:48 55° 281° (W) 14:40:02
Oscar 19 30 Jul 14:32:02 14:37:07 68° 258° (WSW) 14:42:16 437.125/150
ESTCUBE 1 30 Jul 14:34:31 14:37:42 19° 297° (WNW) 14:40:54 437.505/2401.250
VELOX 1 30 Jul 14:34:38 14:38:31 30° 293° (WNW) 14:42:24 145.980
ITAMSAT 1 30 Jul 14:36:35 14:40:42 24° 62° (ENE) 14:44:48 435.822/435.867
AO-85 30 Jul 14:36:59 14:42:21 79° 307° (NW) 14:47:27 145.980
Gurwin Techsat 1B 30 Jul 14:42:38 14:47:55 71° 73° (ENE) 14:53:15 435.225
TISAT 1 30 Jul 14:44:16 14:48:23 45° 99° (E) 14:52:28 437.305
AO-7 30 Jul 14:44:30 14:51:15 28° 52° (NE) 14:58:00 29.400- 29.500
RS-15 30 Jul 14:50:54 15:02:50 51° 39° (NE) 15:14:41 29.354- 29.394
SWISSCUBE 30 Jul 14:56:30 14:59:03 14° 90° (E) 15:01:34 437.505
DX 1 30 Jul 15:06:44 15:09:58 20° 296° (WNW) 15:13:11 434.975-435.025
JAS-2 30 Jul 15:07:50 15:09:53 12° 271° (W) 15:11:54 435.910
UKube-1 30 Jul 15:13:09 15:16:26 21° 296° (WNW) 15:19:42 .
CUSAT 1 30 Jul 15:15:02 15:18:09 78° 78° (ENE) 15:22:08 437.405
BEESAT 30 Jul 15:16:39 15:20:11 20° 93° (E) 15:23:43 436.000
AISAT 30 Jul 15:21:51 15:23:22 12° 302° (WNW) 15:24:53 437.250
SPROUT 30 Jul 15:39:59 15:42:11 14° 299° (WNW) 15:44:23 437.525
ITUPSAT 1 30 Jul 15:41:45 15:46:06 34° 97° (E) 15:50:26 437.325
SO-50 30 Jul 15:52:05 15:56:09 28° 41° (NE) 16:00:06 436.795
Cosmos 2499 30 Jul 16:08:04 16:16:39 57° 91° (E) 16:24:56 435.465 / 435.565
GONETS M04 30 Jul 16:08:46 16:17:23 73° 94° (E) 16:26:06
DANDE 30 Jul 16:14:07 16:16:45 60° 261° (W) 16:19:45 436.750
ITAMSAT 1 30 Jul 16:14:46 16:19:50 51° 260° (W) 16:24:56 435.822/435.867
AO-85 30 Jul 16:19:58 16:23:34 18° 325° (NW) 16:27:03 145.980
TISAT 1 30 Jul 16:20:43 16:23:43 19° 296° (WNW) 16:26:42 437.305
HORYU 2 30 Jul 16:24:11 16:26:27 14° 59° (ENE) 16:28:43 437.375
PHONESAT 2.4 30 Jul 16:25:03 16:26:45 14° 156° (SSE) 16:28:28 2401.200-2431.200
Gurwin Techsat 1B 30 Jul 16:25:10 16:28:25 16° 271° (W) 16:31:41 435.225
SWISSCUBE 30 Jul 16:32:35 16:37:20 68° 287° (WNW) 16:42:01 437.505
AO-7 30 Jul 16:34:51 16:43:14 79° 253° (WSW) 16:51:40 29.400- 29.500
BEESAT 30 Jul 16:53:39 16:58:14 48° 290° (WNW) 17:02:46 436.000
MOZHAYETS 4 30 Jul 17:00:23 17:04:27 30° 96° (E) 17:08:27
RS-15 30 Jul 17:03:49 17:15:55 65° 244° (WSW) 17:27:53 29.354- 29.394
ITUPSAT 1 30 Jul 17:19:45 17:23:50 29° 295° (WNW) 17:27:54 437.325
SO-50 30 Jul 17:32:23 17:36:49 45° 241° (WSW) 17:41:06 436.795
KKS-1 30 Jul 17:34:19 17:38:48 60° 102° (ESE) 17:43:13 437.445
BEESAT 3 30 Jul 17:43:25 17:45:25 14° 110° (ESE) 17:47:26 437.485
NOAA 18 30 Jul 17:51:38 17:55:49 22° 60° (ENE) 18:00:00 137.9125
HORYU 2 30 Jul 17:57:56 18:02:24 75° 256° (WSW) 18:06:56 437.375
BEESAT 2 30 Jul 17:58:55 17:59:32 10° 108° (ESE) 18:00:09 435.950
PHONESAT 2.4 30 Jul 17:59:57 18:02:44 31° 172° (S) 18:05:31 2401.200-2431.200
Cubesat XI-IV 30 Jul 18:00:03 18:04:17 24° 62° (ENE) 18:08:32 437.490
Cosmos 2499 30 Jul 18:02:07 18:10:06 37° 291° (WNW) 18:17:52 435.465 / 435.565
STARS 30 Jul 18:02:20 18:06:45 60° 101° (ESE) 18:11:08 437.465
GONETS M04 30 Jul 18:07:57 18:15:05 28° 296° (WNW) 18:22:18
CUTE-I 30 Jul 18:21:39 18:26:31 36° 66° (ENE) 18:31:23 437.470
BRITE-PL 30 Jul 18:24:29 18:28:29 49° 72° (ENE) 18:32:36 437.365/2234.400
NOAA 15 30 Jul 18:28:37 18:33:41 53° 70° (ENE) 18:38:47 137.62
CUBESAT XI-V 30 Jul 18:30:11 18:34:22 33° 96° (E) 18:38:33 437.345
AO-7 30 Jul 18:32:17 18:37:17 17° 272° (W) 18:42:18 29.400- 29.500
MOZHAYETS 4 30 Jul 18:37:36 18:41:33 30° 293° (WNW) 18:45:30
DOVE 4 30 Jul 18:40:49 18:43:46 18° 61° (ENE) 18:46:51 437.250
PCSat 30 Jul 19:02:53 19:07:37 32° 111° (ESE) 19:12:23 145.827
GOMX 1 30 Jul 19:06:13 19:10:23 62° 73° (ENE) 19:14:49 467.674
LilacSat-2 30 Jul 19:08:45 19:12:38 87° 83° (E) 19:16:34 437.200
KKS-1 30 Jul 19:12:06 19:14:53 16° 299° (WNW) 19:17:41 437.445
BEESAT 3 30 Jul 19:18:43 19:22:36 61° 308° (NW) 19:26:32 437.485
RS-15 30 Jul 19:19:43 19:25:47 15° 267° (W) 19:31:51 29.354- 29.394
NOAA 18 30 Jul 19:30:33 19:36:01 62° 258° (WSW) 19:41:33 137.9125
BEESAT 2 30 Jul 19:32:46 19:36:43 81° 304° (NW) 19:40:43 435.950
PHONESAT 2.4 30 Jul 19:36:07 19:38:53 31° 189° (S) 19:41:40 2401.200-2431.200
Cubesat XI-IV 30 Jul 19:38:47 19:44:01 53° 260° (W) 19:49:17 437.490
STARS 30 Jul 19:39:54 19:42:39 16° 299° (WNW) 19:45:23 437.465
HO-68 30 Jul 19:43:15 19:49:40 37° 61° (ENE) 19:56:07 435.675
STRAND 1 30 Jul 19:58:15 20:01:39 18° 91° (E) 20:05:02 437.568
CINEMA 3 30 Jul 19:59:15 20:03:22 32° 67° (ENE) 20:07:40 145.822/145.860
CUTE-I 30 Jul 20:01:43 20:06:33 33° 264° (W) 20:11:25 437.470
BRITE-PL 30 Jul 20:05:01 20:07:23 15° 270° (W) 20:09:45 437.365/2234.400
CUBESAT XI-V 30 Jul 20:07:44 20:11:39 28° 293° (WNW) 20:15:34 437.345
CANX-2 30 Jul 20:09:18 20:13:09 34° 69° (ENE) 20:17:01 2200.000
NOAA 15 30 Jul 20:09:48 20:13:47 22° 268° (W) 20:17:46 137.62
YUBILEINY 30 Jul 20:11:53 20:19:22 29° 65° (ENE) 20:26:45 435.215
UWE-3 30 Jul 20:12:25 20:13:21 11° 57° (ENE) 20:14:18 435.000/436.395/437.385
DOVE 4 30 Jul 20:16:43 20:21:00 54° 261° (W) 20:25:35 437.250
CUTE 1.7 + AOD 2 30 Jul 20:21:45 20:25:44 40° 71° (ENE) 20:29:44 437.475
AIST 2 30 Jul 20:30:25 20:33:31 21° 113° (ESE) 20:36:39 435.215
Oscar 11 30 Jul 20:37:00 20:38:25 11° 59° (ENE) 20:39:50 145.826/435.025
CUBEBUG 2 30 Jul 20:39:37 20:43:31 27° 66° (ENE) 20:47:28 437.445
ISS 30 Jul 20:42:10 20:44:54 25° 138° (SE) 20:47:38 145.825
PCSat 30 Jul 20:45:43 20:50:53 43° 310° (NW) 20:56:04 145.827
GOMX 1 30 Jul 20:47:04 20:49:02 13° 272° (W) 20:51:04 467.674
